Location: *
(51.1248°S, 108.4023°W)
Time: 04:37:26
(UTC+00:00)

Cosmos 2154 Rocket - Pass Details

Date: 15 June 2021
Orbit: 966 x 997 km, 82.9° (Epoch: 31 July)

Event Time Altitude Azimuth Distance (km) Brightness Sun altitude
Rises 13:03:15 0° 191° (S) 3,748 6.8 -19.6°
Reaches altitude 10° 13:05:47 10° 190° (S) 2,797 6.2 -19.2°
Maximum altitude 13:12:15 89° 279° (W) 1,016 4.0 -18.3°
Drops below altitude 10° 13:18:39 10° 7° (N) 2,773 6.7 -17.3°
Sets 13:21:10 0° 7° (N) 3,714 7.4 -16.9°
